Location: Castro Valley
(37.6940°N, 122.0850°W)
Time: 15:07:23
(UTC-07:00)

Amateur Radio Satellites - All Passes

Search period start: 28 May 2016 14:37
Search period end: 29 May 2016 14:37
Location: Castro Valley, 37.6940°N, 122.0850°W

Satellite Date Start Highest point End Downlink Frequencies (MHz)
Time Altitude Azimuth
SWISSCUBE 28 May 14:59:08 15:03:43 43° 99° (E) 15:08:15 437.505
ITUPSAT 1 28 May 15:05:50 15:10:26 44° 99° (E) 15:15:01 437.325
AIST 2 28 May 15:24:17 15:26:34 14° 314° (NW) 15:28:51 435.215
TISAT 1 28 May 15:25:36 15:28:18 17° 293° (WNW) 15:30:58 437.305
BEESAT 28 May 15:28:33 15:33:22 80° 103° (ESE) 15:38:09 436.000
Gurwin Techsat 1B 28 May 15:59:53 16:02:22 13° 269° (W) 16:04:51 435.225
AO-85 28 May 16:01:18 16:05:32 39° 247° (WSW) 16:09:25 145.980
KKS-1 28 May 16:07:39 16:11:11 23° 96° (E) 16:14:42 437.445
ITAMSAT 1 28 May 16:10:25 16:14:38 25° 264° (W) 16:18:54 435.822/435.867
RS-15 28 May 16:14:05 16:23:13 30° 103° (ESE) 16:32:41 29.354- 29.394
YUBILEINY 28 May 16:16:39 16:25:05 58° 91° (E) 16:33:32 435.215
Cosmos 2491 28 May 16:19:54 16:28:32 67° 268° (W) 16:37:06 435.465 / 435.565
AO-7 28 May 16:23:08 16:31:21 68° 255° (WSW) 16:39:39 29.400- 29.500
HORYU 2 28 May 16:30:09 16:34:03 31° 70° (ENE) 16:37:58 437.375
MOZHAYETS 4 28 May 16:30:22 16:34:33 32° 97° (E) 16:38:42
SWISSCUBE 28 May 16:37:49 16:41:09 19° 294° (WNW) 16:44:29 437.505
STARS 28 May 16:40:15 16:43:56 26° 96° (E) 16:47:36 437.465
Cosmos 2504 28 May 16:40:36 16:45:07 18° 80° (E) 16:49:47 435.465 / 435.565
ITUPSAT 1 28 May 16:44:38 16:47:55 19° 295° (WNW) 16:51:11 437.325
NOAA 15 28 May 17:00:24 17:03:14 15° 62° (ENE) 17:06:05 137.62
BEESAT 28 May 17:09:27 17:10:27 11° 299° (WNW) 17:11:28 436.000
Cubesat XI-IV 28 May 17:10:18 17:12:13 12° 60° (ENE) 17:14:07 437.490
BRITE-PL 28 May 17:14:13 17:17:35 16° 63° (ENE) 17:20:56 437.365/2234.400
NOAA 18 28 May 17:15:56 17:19:33 18° 63° (ENE) 17:23:11 137.9125
GOMX 1 28 May 17:35:02 17:36:38 11° 62° (ENE) 17:38:14 467.674
KKS-1 28 May 17:43:56 17:47:43 28° 291° (WNW) 17:51:30 437.445
CUTE-I 28 May 17:53:03 17:57:38 31° 68° (ENE) 18:02:15 437.470
CUBESAT XI-V 28 May 17:58:47 18:03:00 32° 97° (E) 18:07:11 437.345
HORYU 2 28 May 18:07:18 18:10:37 21° 265° (W) 18:13:58 437.375
MOZHAYETS 4 28 May 18:07:55 18:11:30 23° 292° (WNW) 18:15:06
YUBILEINY 28 May 18:15:07 18:22:18 28° 290° (WNW) 18:29:33 435.215
STARS 28 May 18:16:38 18:20:11 24° 291° (WNW) 18:23:41 437.465
DOVE 4 28 May 18:17:06 18:19:31 13° 64° (ENE) 18:21:53 437.250
RS-15 28 May 18:23:13 18:34:30 72° 304° (WNW) 18:46:30 29.354- 29.394
PCSat 28 May 18:29:14 18:33:59 30° 53° (NE) 18:38:42 145.827
Cosmos 2504 28 May 18:30:21 18:37:30 70° 279° (W) 18:45:06 435.465 / 435.565
HO-68 28 May 18:33:43 18:36:52 13° 54° (NE) 18:40:01 435.675
LilacSat-2 28 May 18:36:58 18:40:46 74° 77° (ENE) 18:44:33 437.200
NOAA 15 28 May 18:37:07 18:42:23 69° 258° (WSW) 18:47:43 137.62
Cubesat XI-IV 28 May 18:46:12 18:51:31 84° 257° (WSW) 18:56:52 437.490
BRITE-PL 28 May 18:49:45 18:55:21 71° 258° (WSW) 19:01:05 437.365/2234.400
NOAA 18 28 May 18:54:22 18:59:44 57° 259° (WSW) 19:05:07 137.9125
GOMX 1 28 May 19:08:24 19:13:55 88° 77° (ENE) 19:19:20 467.674
O/OREOS (USA 219) 28 May 19:19:50 19:24:05 40° 65° (ENE) 19:28:17 437.305
CUTE-I 28 May 19:33:00 19:37:36 30° 263° (W) 19:42:15 437.470
CUBESAT XI-V 28 May 19:36:28 19:40:11 24° 292° (WNW) 19:43:53 437.345
STRAND 1 28 May 19:46:18 19:50:54 32° 97° (E) 19:55:29 437.568
BEESAT 2 28 May 19:47:47 19:49:37 13° 45° (NE) 19:51:24 435.950
CANX-2 28 May 19:50:55 19:54:39 32° 71° (ENE) 19:58:26 2200.000
DOVE 4 28 May 19:51:23 19:56:38 72° 259° (WSW) 20:01:41 437.250
SEEDS 28 May 19:51:46 19:54:53 21° 69° (ENE) 19:58:02 437.485
AUBIESAT-1 28 May 19:59:31 20:03:37 63° 71° (ENE) 20:07:25 437.475
M-CUBED/EXP-1 PRIME 28 May 20:07:12 20:11:26 82° 253° (WSW) 20:15:21 437.505
PCSat 28 May 20:12:28 20:17:23 36° 250° (WSW) 20:22:17 145.827
CINEMA 3 28 May 20:13:19 20:18:00 59° 75° (ENE) 20:22:29 145.822/145.860
HO-68 28 May 20:16:17 20:23:23 76° 72° (ENE) 20:30:32 435.675
CUTE 1.7 + AOD 2 28 May 20:17:28 20:21:35 58° 75° (ENE) 20:25:45 437.475
BEESAT 3 28 May 20:18:36 20:22:22 41° 55° (NE) 20:26:05 437.485
GONETS M04 28 May 20:19:48 20:20:29 10° 74° (ENE) 20:21:09
Oscar 11 28 May 20:29:03 20:30:58 13° 65° (ENE) 20:32:55 145.826/435.025
Cosmos 2504 28 May 20:32:24 20:32:31 10° 300° (WNW) 20:32:38 435.465 / 435.565
COMPASS 1 28 May 20:34:31 20:38:28 45° 74° (ENE) 20:42:27 437.405
AAUSAT CUBESAT 2 28 May 20:35:55 20:39:43 37° 73° (ENE) 20:43:33 437.432
RS-15 28 May 20:40:35 20:49:38 25° 332° (NNW) 20:59:04 29.354- 29.394
PRISM 28 May 20:40:36 20:43:26 18° 94° (E) 20:46:15 437.425
ZACube-1 28 May 20:45:00 20:47:41 17° 68° (ENE) 20:50:22 437.345
AIST 1 28 May 20:45:00 20:48:24 22° 88° (E) 20:51:49
GOMX 1 28 May 20:51:29 20:52:31 10° 271° (W) 20:53:31 467.674
CUBEBUG 2 28 May 20:54:31 20:58:45 49° 74° (ENE) 21:02:52 437.445
DELFI C3 28 May 20:58:01 20:59:10 11° 65° (ENE) 21:00:19 145.870
O/OREOS (USA 219) 28 May 21:00:21 21:03:06 16° 260° (W) 21:05:50 437.305
PHONESAT 2.4 28 May 21:00:41 21:02:58 19° 148° (SSE) 21:05:17 2401.200-2431.200
Cosmos 2499 28 May 21:13:07 21:16:02 13° 76° (ENE) 21:19:01 435.465 / 435.565
UWE-3 28 May 21:20:14 21:24:30 67° 76° (ENE) 21:28:41 435.000/436.395/437.385
FUNcube-1 28 May 21:20:54 21:24:51 40° 73° (ENE) 21:28:44 145.935
CUSAT 1 28 May 21:22:37 21:25:40 13° 57° (ENE) 21:28:34 437.405
BEESAT 2 28 May 21:23:54 21:27:51 63° 242° (WSW) 21:31:45 435.950
ISS 28 May 21:25:29 21:28:43 74° 321° (NW) 21:31:59 145.825
STRAND 1 28 May 21:25:36 21:29:56 28° 292° (WNW) 21:34:15 437.568
SEEDS 28 May 21:26:47 21:30:25 28° 264° (W) 21:34:03 437.485
CANX-2 28 May 21:27:39 21:30:34 18° 266° (W) 21:33:30 2200.000
CINEMA 3 28 May 21:53:30 21:55:23 12° 268° (W) 21:57:15 145.822/145.860
BEESAT 3 28 May 21:57:29 21:59:41 15° 251° (WSW) 22:01:52 437.485
Oscar 11 28 May 22:02:27 22:06:38 52° 260° (W) 22:10:50 145.826/435.025
GONETS M04 28 May 22:06:49 22:15:31 68° 93° (E) 22:24:12
AIST 2 28 May 22:07:11 22:10:30 23° 50° (NE) 22:13:49 435.215
HO-68 28 May 22:07:12 22:11:43 18° 268° (W) 22:16:17 435.675
COMPASS 1 28 May 22:12:27 22:14:15 13° 269° (W) 22:16:04 437.405
AAUSAT CUBESAT 2 28 May 22:12:53 22:15:20 15° 267° (W) 22:17:48 437.432
PRISM 28 May 22:15:03 22:18:49 33° 289° (WNW) 22:22:32 437.425
HUMSAT D 28 May 22:15:52 22:19:42 41° 73° (ENE) 22:23:33 437.325/437.525
ZACube-1 28 May 22:19:46 22:23:41 36° 262° (W) 22:27:34 437.345
AIST 1 28 May 22:22:06 22:25:49 27° 284° (WNW) 22:29:35
DELFI C3 28 May 22:29:41 22:33:33 51° 260° (W) 22:37:27 145.870
CUBEBUG 2 28 May 22:33:41 22:35:35 13° 268° (W) 22:37:28 437.445
PHONESAT 2.4 28 May 22:36:18 22:39:26 89° 168° (SSE) 22:42:35 2401.200-2431.200
ANTELSAT 28 May 22:44:49 22:48:16 23° 96° (E) 22:51:44 437.575/2403.000
50 SAT 28 May 22:49:53 22:50:52 11° 66° (ENE) 22:51:50 437.505
FUNcube-1 28 May 22:58:54 23:01:14 14° 267° (W) 23:03:34 145.935
Cosmos 2499 28 May 23:00:30 23:07:44 88° 96° (E) 23:15:32 435.465 / 435.565
RS-15 28 May 23:01:03 23:08:32 18° 8° (N) 23:16:07 29.354- 29.394
CUSAT 1 28 May 23:01:48 23:09:26 74° 79° (E) 23:15:34 437.405
ISS 28 May 23:03:53 23:05:38 14° 339° (NNW) 23:07:23 145.825
DANDE 28 May 23:07:40 23:15:42 46° 74° (ENE) 23:22:47 436.750
SO-50 28 May 23:09:04 23:11:08 13° 107° (ESE) 23:13:14 436.795
AISAT 28 May 23:11:05 23:14:40 24° 68° (ENE) 23:18:15 437.250
UKube-1 28 May 23:12:18 23:14:54 16° 65° (ENE) 23:17:29 .
UNISAT 6 28 May 23:39:32 23:43:52 82° 284° (WNW) 23:48:15 437.425
AIST 2 28 May 23:45:20 23:49:00 31° 247° (WSW) 23:52:40 435.215
TIGRISAT 28 May 23:46:37 23:50:54 72° 284° (WNW) 23:55:16 435.000
HUMSAT D 28 May 23:53:33 23:55:31 13° 268° (W) 23:57:29 437.325/437.525
ESTCUBE 1 28 May 23:54:12 23:58:42 80° 258° (WSW) 00:03:15 437.505/2401.250
CUBEBUG 1 28 May 23:59:13 00:03:39 80° 76° (ENE) 00:08:06 437.445
DX 1 28 May 23:59:43 00:04:03 67° 76° (ENE) 00:08:26 434.975-435.025
DUCHIFAT 1 29 May 00:02:48 00:06:18 26° 96° (E) 00:09:48 145.980
GONETS M04 29 May 00:06:15 00:13:02 24° 292° (WNW) 00:19:49
VELOX 1 29 May 00:10:05 00:14:33 79° 259° (W) 00:19:02 145.980
PHONESAT 2.4 29 May 00:13:17 00:16:20 47° 359° (N) 00:19:23 2401.200-2431.200
BUGSAT 1 29 May 00:15:41 00:18:08 15° 94° (E) 00:20:33 437.445
SPROUT 29 May 00:19:44 00:23:52 49° 74° (ENE) 00:28:01 437.525
50 SAT 29 May 00:20:43 00:24:10 42° 261° (W) 00:27:40 437.505
ANTELSAT 29 May 00:21:16 00:24:56 28° 290° (WNW) 00:28:39 437.575/2403.000
TISAT 1 29 May 00:39:21 00:42:36 22° 69° (ENE) 00:45:51 437.305
POPSAT HIP 1 29 May 00:42:09 00:46:22 87° 107° (ESE) 00:50:33 437.405
QB50P1 29 May 00:42:24 00:46:37 89° 80° (E) 00:50:49 145.935-145.965
QB50P2 29 May 00:45:15 00:49:29 80° 282° (WNW) 00:53:40 145.880/145.840
CUSAT 1 29 May 00:45:47 00:50:22 18° 281° (W) 00:54:29 437.405
SO-50 29 May 00:46:08 00:51:01 70° 302° (WNW) 00:55:56 436.795
UKube-1 29 May 00:46:27 00:50:34 43° 261° (W) 00:54:42 .
AISAT 29 May 00:47:07 00:50:59 29° 263° (W) 00:54:53 437.250
POLYITAN 1 29 May 00:47:44 00:51:55 78° 285° (WNW) 00:56:07 437.675
DANDE 29 May 00:50:52 00:58:18 37° 273° (W) 01:04:54 436.750
Cosmos 2499 29 May 00:58:06 01:02:03 15° 297° (WNW) 01:06:10 435.465 / 435.565
NANOSAT C BR1 29 May 01:00:03 01:04:11 58° 285° (WNW) 01:08:17 145.865
JAS-2 29 May 01:10:20 01:16:41 32° 93° (E) 01:22:23 435.910
RS-15 29 May 01:15:01 01:26:12 38° 42° (NE) 01:37:20 29.354- 29.394
DUCHIFAT 1 29 May 01:38:35 01:41:52 23° 291° (WNW) 01:45:09 145.980
BUGSAT 1 29 May 01:49:57 01:53:37 34° 288° (WNW) 01:57:14 437.445
PHONESAT 2.4 29 May 01:50:07 01:53:15 80° 16° (NNE) 01:56:23 2401.200-2431.200
SPROUT 29 May 01:58:13 02:00:05 12° 268° (W) 02:01:56 437.525
Oscar 19 29 May 01:59:59 02:04:39 34° 97° (E) 02:09:16 437.125/150
SWISSCUBE 29 May 02:03:45 02:08:10 40° 71° (ENE) 02:12:36 437.505
ITUPSAT 1 29 May 02:10:43 02:15:10 41° 71° (ENE) 02:19:39 437.325
TISAT 1 29 May 02:14:28 02:18:05 28° 263° (W) 02:21:44 437.305
ISS 29 May 02:19:35 02:21:01 12° 20° (NNE) 02:22:28 145.825
YUBILEINY 29 May 02:29:43 02:36:43 26° 69° (ENE) 02:43:40 435.215
SO-50 29 May 02:30:55 02:32:23 11° 321° (NW) 02:33:50 436.795
BEESAT 29 May 02:32:55 02:37:38 74° 74° (ENE) 02:42:24 436.000
Gurwin Techsat 1B 29 May 02:35:12 02:39:54 31° 97° (E) 02:44:33 435.225
ITAMSAT 1 29 May 02:46:35 02:49:15 14° 92° (E) 02:51:54 435.822/435.867
JAS-2 29 May 02:54:56 03:01:49 44° 292° (WNW) 03:08:00 435.910
KKS-1 29 May 03:04:27 03:07:29 18° 66° (ENE) 03:10:32 437.445
Cosmos 2491 29 May 03:23:16 03:30:35 30° 84° (E) 03:37:51 435.465 / 435.565
PHONESAT 2.4 29 May 03:27:15 03:29:47 23° 211° (SSW) 03:32:18 2401.200-2431.200
RS-15 29 May 03:27:28 03:39:43 73° 245° (WSW) 03:51:49 29.354- 29.394
MOZHAYETS 4 29 May 03:30:44 03:34:27 25° 69° (ENE) 03:38:10
STARS 29 May 03:35:34 03:38:45 20° 67° (ENE) 03:41:55 437.465
Oscar 19 29 May 03:39:34 03:43:48 26° 293° (WNW) 03:48:01 437.125/150
SWISSCUBE 29 May 03:42:44 03:46:05 19° 266° (W) 03:49:27 437.505
ITUPSAT 1 29 May 03:49:55 03:53:10 18° 266° (W) 03:56:26 437.325
ISS 29 May 03:54:48 03:58:01 59° 38° (NE) 04:01:14 145.825
Gurwin Techsat 1B 29 May 04:15:09 04:19:45 30° 292° (WNW) 04:24:20 435.225
Cosmos 2504 29 May 04:23:55 04:31:49 40° 75° (ENE) 04:39:58 435.465 / 435.565
ITAMSAT 1 29 May 04:23:56 04:29:06 63° 287° (WNW) 04:34:15 435.822/435.867
YUBILEINY 29 May 04:25:29 04:34:06 65° 268° (W) 04:42:44 435.215
AO-7 29 May 04:26:50 04:34:52 48° 101° (ESE) 04:42:51 29.400- 29.500
AO-85 29 May 04:35:13 04:37:28 13° 106° (ESE) 04:39:42 145.980
KKS-1 29 May 04:39:34 04:43:45 39° 261° (W) 04:47:56 437.445
CUBESAT XI-V 29 May 05:00:25 05:04:16 26° 69° (ENE) 05:08:08 437.345
MOZHAYETS 4 29 May 05:07:36 05:11:29 28° 264° (W) 05:15:24
STARS 29 May 05:10:50 05:14:51 34° 262° (W) 05:18:53 437.465
Cosmos 2491 29 May 05:18:18 05:26:52 55° 282° (WNW) 05:35:30 435.465 / 435.565
ISS 29 May 05:32:49 05:34:05 12° 232° (SW) 05:35:20 145.825
RS-15 29 May 05:44:09 05:49:55 15° 264° (W) 05:55:43 29.354- 29.394
HORYU 2 29 May 05:58:36 06:03:04 83° 104° (ESE) 06:07:30 437.375
AO-85 29 May 06:11:50 06:17:18 83° 301° (WNW) 06:22:42 145.980
CUTE-I 29 May 06:13:13 06:15:53 14° 91° (E) 06:18:33 437.470
Cosmos 2504 29 May 06:17:17 06:25:08 43° 272° (W) 06:33:17 435.465 / 435.565
AO-7 29 May 06:19:56 06:27:23 38° 299° (WNW) 06:34:50 29.400- 29.500
CUBESAT XI-V 29 May 06:37:28 06:41:30 29° 264° (W) 06:45:35 437.345
JUGNU 29 May 06:39:01 06:41:26 12° 174° (S) 06:43:50 437.505
NOAA 15 29 May 06:54:14 06:59:24 52° 100° (E) 07:04:32 137.62
BRITE-PL 29 May 06:57:36 07:02:24 45° 97° (E) 07:06:48 437.365/2234.400
STRAND 1 29 May 07:00:20 07:05:00 38° 70° (ENE) 07:09:43 437.568
Cubesat XI-IV 29 May 07:05:25 07:10:35 45° 100° (E) 07:15:42 437.490
GOMX 1 29 May 07:13:33 07:17:27 27° 95° (E) 07:21:08 467.674
NOAA 18 29 May 07:18:06 07:23:35 72° 103° (ESE) 07:29:04 137.9125
PRISM 29 May 07:30:15 07:31:15 11° 64° (ENE) 07:32:16 437.425
LilacSat-2 29 May 07:46:21 07:50:02 52° 285° (WNW) 07:53:44 437.200
HO-68 29 May 07:48:30 07:52:11 15° 90° (E) 07:55:52 435.675
CUTE-I 29 May 07:51:02 07:56:21 67° 287° (WNW) 08:01:40 437.470
DOVE 4 29 May 07:53:08 07:57:01 32° 97° (E) 08:00:45 437.250
AO-85 29 May 07:55:37 07:58:34 15° 318° (NW) 08:01:29 145.980
CUTE 1.7 + AOD 2 29 May 08:06:19 08:07:54 12° 91° (E) 08:09:28 437.475
CINEMA 3 29 May 08:11:31 08:13:41 14° 92° (E) 08:15:50 145.822/145.860
GONETS M04 29 May 08:20:05 08:27:30 30° 71° (ENE) 08:34:51
JUGNU 29 May 08:27:00 08:29:35 13° 185° (S) 08:32:10 437.505
AIST 1 29 May 08:30:16 08:34:34 59° 81° (E) 08:38:48
NOAA 15 29 May 08:35:08 08:38:44 19° 296° (WNW) 08:42:19 137.62
SRMSAT 29 May 08:36:14 08:38:21 12° 173° (S) 08:40:27 437.500
BRITE-PL 29 May 08:37:05 08:40:25 18° 296° (WNW) 08:43:36 437.365/2234.400
STRAND 1 29 May 08:40:19 08:44:16 23° 265° (W) 08:48:15 437.568
Cubesat XI-IV 29 May 08:46:18 08:50:18 22° 295° (WNW) 08:54:17 437.490
CUBEBUG 2 29 May 08:49:27 08:50:32 11° 91° (E) 08:51:38 437.445
GOMX 1 29 May 08:51:45 08:55:25 24° 292° (WNW) 08:58:54 467.674
Cosmos 2499 29 May 08:53:17 09:00:45 31° 72° (ENE) 09:08:19 435.465 / 435.565
NOAA 18 29 May 09:00:37 09:03:36 15° 299° (WNW) 09:06:34 137.9125
PRISM 29 May 09:01:56 09:06:01 60° 259° (WSW) 09:10:10 437.425
PCSat 29 May 09:08:51 09:13:48 38° 110° (ESE) 09:18:47 145.827
SEEDS 29 May 09:11:48 09:15:57 50° 99° (E) 09:20:05 437.485
CANX-2 29 May 09:12:50 09:17:08 86° 97° (E) 09:21:26 2200.000
UWE-3 29 May 09:12:54 09:15:15 15° 93° (E) 09:17:37 435.000/436.395/437.385
AUBIESAT-1 29 May 09:14:28 09:17:43 57° 105° (ESE) 09:21:01 437.475
SO-50 29 May 09:19:37 09:24:16 61° 57° (ENE) 09:28:45 436.795
M-CUBED/EXP-1 PRIME 29 May 09:22:52 09:26:08 80° 288° (WNW) 09:29:25 437.505
O/OREOS (USA 219) 29 May 09:29:47 09:34:20 71° 108° (ESE) 09:38:52 437.305
DOVE 4 29 May 09:31:29 09:34:28 18° 293° (WNW) 09:37:22 437.250
HO-68 29 May 09:33:27 09:40:40 87° 289° (WNW) 09:47:52 435.675
CUTE 1.7 + AOD 2 29 May 09:39:50 09:44:00 52° 286° (WNW) 09:48:10 437.475
ANTELSAT 29 May 09:42:45 09:45:30 17° 67° (ENE) 09:48:14 437.575/2403.000
CINEMA 3 29 May 09:47:08 09:51:01 40° 287° (WNW) 09:54:54 145.822/145.860
Oscar 11 29 May 09:51:36 09:55:29 31° 97° (E) 09:59:20 145.826/435.025
COMPASS 1 29 May 09:54:20 09:58:33 70° 283° (WNW) 10:02:44 437.405
AAUSAT CUBESAT 2 29 May 09:54:55 09:59:09 87° 277° (W) 10:03:20 437.432
ZACube-1 29 May 10:09:21 10:13:24 44° 99° (E) 10:17:29 437.345
DELFI C3 29 May 10:09:41 10:12:51 22° 95° (E) 10:16:00 145.870
BEESAT 3 29 May 10:10:34 10:11:21 10° 108° (ESE) 10:12:08 437.485
GONETS M04 29 May 10:16:16 10:24:38 55° 270° (W) 10:32:59
CUSAT 1 29 May 10:22:58 10:25:31 12° 76° (ENE) 10:28:12 437.405
CUBEBUG 2 29 May 10:23:23 10:27:27 53° 285° (WNW) 10:31:34 437.445
SRMSAT 29 May 10:24:00 10:26:39 13° 183° (S) 10:29:18 437.500
UNISAT 6 29 May 10:36:21 10:40:41 69° 75° (ENE) 10:44:57 437.425
TIGRISAT 29 May 10:43:12 10:47:33 78° 76° (ENE) 10:51:51 435.000
Cosmos 2499 29 May 10:45:46 10:54:11 57° 270° (W) 11:02:47 435.465 / 435.565
FUNcube-1 29 May 10:46:15 10:50:27 70° 284° (WNW) 10:54:42 145.935
UWE-3 29 May 10:47:56 10:51:52 40° 287° (WNW) 10:55:51 435.000/436.395/437.385
SEEDS 29 May 10:49:14 10:51:11 13° 295° (WNW) 10:53:09 437.485
PCSat 29 May 10:52:35 10:57:15 29° 307° (NW) 11:01:56 145.827
DUCHIFAT 1 29 May 10:53:47 10:56:23 16° 67° (ENE) 10:58:58 145.980
SO-50 29 May 11:02:09 11:04:08 13° 253° (WSW) 11:06:07 436.795
O/OREOS (USA 219) 29 May 11:12:36 11:14:14 12° 306° (NW) 11:15:52 437.305
BEESAT 2 29 May 11:14:11 11:17:46 33° 114° (ESE) 11:21:22 435.950
ANTELSAT 29 May 11:17:50 11:21:55 39° 262° (W) 11:25:57 437.575/2403.000
JAS-2 29 May 11:22:00 11:25:48 15° 55° (NE) 11:29:38 435.910
HO-68 29 May 11:23:20 11:27:22 16° 304° (NW) 11:31:25 435.675
Oscar 11 29 May 11:28:09 11:31:23 21° 292° (WNW) 11:34:38 145.826/435.025
POPSAT HIP 1 29 May 11:32:34 11:36:39 49° 74° (ENE) 11:40:44 437.405
QB50P1 29 May 11:32:45 11:36:50 50° 74° (ENE) 11:40:56 145.935-145.965
QB50P2 29 May 11:35:42 11:39:52 58° 74° (ENE) 11:44:02 145.880/145.840
HUMSAT D 29 May 11:36:06 11:40:16 77° 283° (WNW) 11:44:29 437.325/437.525
POLYITAN 1 29 May 11:38:11 11:42:20 59° 75° (ENE) 11:46:30 437.675
DELFI C3 29 May 11:44:19 11:47:38 25° 290° (WNW) 11:50:57 145.870
BEESAT 3 29 May 11:44:40 11:48:31 55° 303° (WNW) 11:52:25 437.485
ZACube-1 29 May 11:47:01 11:49:19 14° 294° (WNW) 11:51:38 437.345
ESTCUBE 1 29 May 11:49:07 11:52:51 24° 95° (E) 11:56:33 437.505/2401.250
NANOSAT C BR1 29 May 11:49:51 11:54:05 78° 75° (ENE) 11:58:18 145.865
CUBEBUG 1 29 May 11:50:56 11:53:46 17° 93° (E) 11:56:32 437.445
DX 1 29 May 11:51:36 11:53:38 13° 92° (E) 11:55:39 434.975-435.025
50 SAT 29 May 11:52:34 11:55:05 17° 94° (E) 11:57:34 437.505
CUSAT 1 29 May 11:59:40 12:06:00 80° 96° (E) 12:13:46 437.405
VELOX 1 29 May 12:02:48 12:06:15 22° 95° (E) 12:09:40 145.980
DANDE 29 May 12:13:09 12:18:23 47° 90° (E) 12:25:09 436.750
DUCHIFAT 1 29 May 12:27:48 12:31:45 39° 261° (W) 12:35:42 145.980
UKube-1 29 May 12:35:23 12:39:19 33° 98° (E) 12:43:13 .
BUGSAT 1 29 May 12:36:59 12:41:10 68° 258° (WSW) 12:45:21 437.445
AISAT 29 May 12:38:27 12:42:50 60° 101° (E) 12:47:09 437.250
BEESAT 2 29 May 12:52:41 12:55:41 20° 310° (NW) 12:58:41 435.950
JAS-2 29 May 13:02:03 13:09:22 73° 73° (ENE) 13:17:13 435.910
POPSAT HIP 1 29 May 13:10:58 13:12:41 12° 268° (W) 13:14:24 437.405
QB50P1 29 May 13:11:15 13:12:53 12° 268° (W) 13:14:29 145.935-145.965
Oscar 19 29 May 13:14:50 13:19:41 41° 71° (ENE) 13:24:33 437.125/150
QB50P2 29 May 13:15:27 13:16:00 10° 269° (W) 13:16:32 145.880/145.840
50 SAT 29 May 13:25:38 13:28:48 27° 289° (WNW) 13:31:57 437.505
ESTCUBE 1 29 May 13:25:42 13:29:36 28° 290° (WNW) 13:33:27 437.505/2401.250
DX 1 29 May 13:25:52 13:30:05 48° 287° (WNW) 13:34:15 434.975-435.025
CUBEBUG 1 29 May 13:26:08 13:30:10 38° 288° (WNW) 13:34:11 437.445
Cosmos 2491 29 May 13:37:47 13:40:56 12° 60° (ENE) 13:44:04 435.465 / 435.565
AO-7 29 May 13:38:46 13:40:41 11° 46° (NE) 13:42:37 29.400- 29.500
VELOX 1 29 May 13:38:52 13:42:42 30° 290° (WNW) 13:46:31 145.980
AIST 2 29 May 13:40:19 13:44:26 83° 119° (ESE) 13:48:35 435.215
SPROUT 29 May 13:43:13 13:47:26 63° 285° (WNW) 13:51:38 437.525
CUSAT 1 29 May 13:44:33 13:49:12 19° 298° (WNW) 13:54:21 437.405
Gurwin Techsat 1B 29 May 13:54:22 13:59:18 41° 70° (ENE) 14:04:16 435.225
DANDE 29 May 13:56:51 14:01:39 26° 294° (WNW) 14:07:31 436.750
TISAT 1 29 May 13:59:34 14:03:36 48° 100° (E) 14:07:38 437.305
ITAMSAT 1 29 May 14:02:34 14:06:07 19° 64° (ENE) 14:09:41 435.822/435.867
SWISSCUBE 29 May 14:07:57 14:09:34 12° 91° (E) 14:11:12 437.505
UKube-1 29 May 14:12:02 14:15:07 19° 293° (WNW) 14:18:11 .
ITUPSAT 1 29 May 14:14:59 14:16:56 12° 91° (E) 14:18:52 437.325
AISAT 29 May 14:17:06 14:18:45 12° 297° (WNW) 14:20:25 437.250
